Observations for Trim Market St
| Time | AQI | Temp °C | Hum % | Pres Pa | CO μg/m³ | H₂S μg/m³ | NO μg/m³ | NO₂ μg/m³ | O₃ μg/m³ | SO₂ μg/m³ | PM1 μg/m³ | PM2.5 μg/m³ | PM10 μg/m³ |
|---|---|---|---|---|---|---|---|---|---|---|---|---|---|
| Monday 17 August 2026 | |||||||||||||
| 13:09 | 2 | 25.4 | 54 | 55,642 | 0 | 0 | 2.2 | 11.82 | 57.81 | 0 | 0 | 1.79 | 1.96 |
| 13:08 | 2 | 25.3 | 54 | 55,567 | 0 | 0 | 2.06 | 11.84 | 62.83 | 0 | 0 | 2.29 | 2.47 |
| 13:06 | 2 | 25.1 | 54 | 55,655 | 0 | 0 | 1.85 | 13.28 | 55.01 | 0 | 0 | 2.28 | 2.48 |
| 12:57 | 2 | 24.7 | 54 | 55,995 | 0 | 0 | 1.99 | 12.31 | 53.97 | 0 | 0 | 1.76 | 1.94 |
| 12:56 | 2 | 24.7 | 54 | 55,940 | 0 | 0 | 1.99 | 19.28 | 49.34 | 0 | 0.71 | 3.8 | 4.65 |
| 12:55 | 2 | 24.8 | 54 | 55,851 | 0 | 0 | 1.86 | 11.96 | 58.08 | 0 | 0 | 1.77 | 1.95 |
| 12:54 | 2 | 24.8 | 54 | 55,795 | 0 | 0 | 1.6 | 11.51 | 58.77 | 0 | 0 | 1.78 | 1.96 |
| 12:53 | 2 | 24.9 | 54 | 55,697 | 0 | 0 | 1.56 | 9.76 | 59.51 | 0 | 0 | 1.78 | 1.96 |
| 12:52 | 2 | 24.9 | 54 | 55,660 | 0 | 0 | 1.76 | 11.09 | 53.03 | 0 | 0 | 1.78 | 1.95 |
| 12:51 | 2 | 25 | 54 | 55,643 | 0 | 0 | 1.72 | 11.49 | 57.15 | 0 | 0 | 1.78 | 1.95 |
| 12:50 | 2 | 25 | 54 | 55,612 | 0 | 0 | 1.66 | 11.86 | 53.36 | 0 | 0 | 1.78 | 1.96 |
| 12:49 | 2 | 25.1 | 54 | 55,559 | 0 | 0 | 1.6 | 11.68 | 57.38 | 0 | 0 | 1.79 | 1.96 |
| 12:48 | 2 | 25.1 | 54 | 55,534 | 0 | 0 | 1.61 | 11.39 | 58.57 | 0 | 0 | 1.79 | 1.96 |
| 12:47 | 2 | 25.1 | 54 | 55,483 | 0 | 0 | 1.43 | 11.12 | 53.04 | 0 | 0 | 1.78 | 1.96 |
| 12:46 | 2 | 25.1 | 54 | 55,474 | 0 | 0 | 1.47 | 10.85 | 54.48 | 0 | 0 | 1.78 | 1.96 |
| 12:45 | 2 | 25.2 | 54 | 55,466 | 0 | 0 | 1.62 | 10.72 | 56.76 | 0 | 0 | 1.78 | 1.96 |
| 12:44 | 2 | 25.2 | 54 | 55,479 | 0 | 0 | 1.71 | 9.87 | 53.66 | 0 | 0 | 2.29 | 2.47 |
| 12:42 | 2 | 25.2 | 54 | 55,501 | 0 | 0 | 2.21 | 11.8 | 46.89 | 0 | 0 | 1.78 | 1.95 |
| 12:39 | 2 | 25.2 | 54 | 55,563 | 0.3 | 0 | 2.17 | 12.1 | 49.77 | 0 | 0 | 1.77 | 1.95 |
| 12:38 | 2 | 25.2 | 54 | 55,613 | 0 | 0 | 1.96 | 12.04 | 47.49 | 0 | 0 | 2.79 | 3.2 |